Mobridge, SD

11:45 PM CDT on October 20, 2017 (GMT -0500)
Mobridge Municipal

Weather History for KMBG - May, 2013

Change the Weather History Date:

Monday, May 27, 2013

  Actual Average Record
Temperature  
Mean Temperature 62 °F 60 °F  
Max Temperature 70 °F 71 °F 106 °F (1934)
Min Temperature 53 °F 48 °F 28 °F (1915)
Degree Days  
Heating Degree Days 3 6  
Month to date heating degree days 278 266  
Since 1 July heating degree days 8176 7861  
Cooling Degree Days 0 1  
Month to date cooling degree days 13 9  
Year to date cooling degree days 13 10  
Growing Degree Days 11 (Base 50)    
Moisture  
Dew Point 54 °F    
Average Humidity 83    
Maximum Humidity 100    
Minimum Humidity 66    
Precipitation  
Precipitation 0.97 in 0.10 in 1.21 in (1931)
Month to date precipitation 4.37 2.43  
Year to date precipitation 7.42 5.63  
Sea Level Pressure  
Sea Level Pressure 29.79 in    
Wind  
Wind Speed 10 mph (ESE)    
Max Wind Speed 24 mph    
Max Gust Speed 32 mph    
Visibility 6 miles    
Events Rain , Thunderstorm    
T = Trace of Precipitation, MM = Missing Value Source: NWS Daily Summary

Daily Weather History Graph

Daily Weather History Graph

Search for Another Location

Airport or City:

Trip Planner

Search our weather history database for the weather conditions in past years. The results will help you decide how hot, cold, wet, or windy it might be!

Date:

Astronomy

May. 27, 2013 Rise Set
Actual Time 5:59 AM CDT 9:19 PM CDT
Civil Twilight 5:22 AM CDT 9:55 PM CDT
Nautical Twilight 4:35 AM CDT 10:43 PM CDT
Astronomical Twilight 3:35 AM CDT 11:43 PM CDT
Moon 11:55 PM CDT (5/27) 8:40 AM CDT (5/27)
Length of Visible Light 16h 32m
Length of Day
15h 19m
Waning Gibbous, 91% of the Moon is Illuminated
May 27
Waning Gibbous
May 31
Last Quarter
Jun 8
New
Jun 16
First Quarter
Jun 23
Full

Hourly Weather History & Observations

Time (CDT) Temp. Dew Point Humidity Pressure Visibility Wind Dir Wind Speed Gust Speed Precip Events Conditions
12:52 AM 55.9 °F 53.1 °F 90% 29.91 in 7.0 mi SSE 16.1 mph 20.7 mph N/A   Overcast
1:52 AM 55.9 °F 53.1 °F 90% 29.88 in 7.0 mi SE 8.1 mph - N/A   Overcast
2:52 AM 54.0 °F 53.1 °F 97% 29.86 in 5.0 mi SE 5.8 mph - N/A   Scattered Clouds
3:04 AM 53.6 °F 53.6 °F 100% 29.86 in 4.0 mi SE 5.8 mph - N/A   Mostly Cloudy
3:32 AM 53.6 °F 53.6 °F 100% 29.82 in 3.0 mi East 10.4 mph - N/A   Overcast
3:52 AM 54.0 °F 53.1 °F 97% 29.81 in 4.0 mi East 11.5 mph - N/A   Overcast
4:52 AM 54.0 °F 53.1 °F 97% 29.88 in 5.0 mi SSE 6.9 mph - N/A   Overcast
5:11 AM 53.6 °F 53.6 °F 100% 29.89 in 2.5 mi SSE 6.9 mph - N/A   Overcast
5:22 AM 53.6 °F 53.6 °F 100% 29.87 in 3.0 mi SE 8.1 mph - N/A   Overcast
5:29 AM 53.6 °F 51.8 °F 94% 29.86 in 2.0 mi SE 9.2 mph - N/A   Overcast
5:50 AM 53.6 °F 53.6 °F 100% 29.87 in 3.0 mi SSE 3.5 mph - N/A   Overcast
5:52 AM 53.1 °F 53.1 °F 100% 29.86 in 3.0 mi SSE 4.6 mph - N/A   Overcast
6:08 AM 53.6 °F 53.6 °F 100% 29.84 in 2.5 mi ESE 8.1 mph - N/A   Overcast
6:22 AM 53.6 °F 51.8 °F 94% 29.81 in 1.2 mi ESE 11.5 mph - N/A   Overcast
6:52 AM 53.1 °F 52.0 °F 96% 29.78 in 2.0 mi ESE 15.0 mph - N/A   Overcast
7:04 AM 53.6 °F 53.6 °F 100% 29.77 in 1.5 mi ESE 18.4 mph - N/A   Overcast
7:29 AM 53.6 °F 53.6 °F 100% 29.80 in 2.5 mi ENE 8.1 mph - N/A   Overcast
7:38 AM 53.6 °F 53.6 °F 100% 29.81 in 4.0 mi ENE 10.4 mph - N/A   Overcast
7:52 AM 54.0 °F 53.1 °F 97% 29.82 in 4.0 mi East 6.9 mph - N/A   Overcast
8:52 AM 54.0 °F 53.1 °F 97% 29.85 in 4.0 mi ESE 4.6 mph - N/A   Overcast
9:52 AM 55.0 °F 53.1 °F 93% 29.85 in 5.0 mi East 3.5 mph - N/A   Overcast
10:52 AM 55.9 °F 54.0 °F 93% 29.82 in 5.0 mi East 11.5 mph - N/A   Overcast
11:42 AM 59.0 °F 55.4 °F 88% 29.80 in 10.0 mi East 16.1 mph - N/A   Overcast
11:52 AM 59.0 °F 55.0 °F 87% 29.81 in 10.0 mi East 12.7 mph - N/A   Overcast
12:11 PM 59.0 °F 55.4 °F 88% 29.80 in 10.0 mi ESE 13.8 mph - N/A   Overcast
12:52 PM 62.1 °F 55.0 °F 78% 29.78 in 10.0 mi SE 8.1 mph - N/A   Overcast
1:17 PM 64.4 °F 55.4 °F 73% 29.77 in 10.0 mi SE 8.1 mph - N/A   Mostly Cloudy
1:52 PM 66.0 °F 57.0 °F 73% 29.75 in 10.0 mi SSE 6.9 mph - N/A   Partly Cloudy
2:52 PM 69.1 °F 57.0 °F 65% 29.75 in 10.0 mi South 5.8 mph - N/A   Clear
3:52 PM 69.1 °F 57.9 °F 68% 29.74 in 10.0 mi SSE 12.7 mph - N/A   Overcast
4:52 PM 68.0 °F 57.9 °F 70% 29.73 in 10.0 mi ESE 16.1 mph - N/A   Clear
5:52 PM 68.0 °F 57.9 °F 70% 29.70 in 10.0 mi ESE 15.0 mph - N/A   Overcast
6:52 PM 66.9 °F 57.9 °F 73% 29.68 in 10.0 mi ESE 16.1 mph - N/A   Overcast
7:11 PM 62.6 °F 53.6 °F 72% 29.74 in 10.0 mi WNW 20.7 mph 28.8 mph N/A Thunderstorm Overcast
7:28 PM 55.4 °F 53.6 °F 94% 29.75 in 4.0 mi NW 12.7 mph 24.2 mph 0.02 in Rain , Thunderstorm Rain
7:33 PM 55.4 °F 53.6 °F 94% 29.77 in 1.8 mi WNW 10.4 mph - 0.07 in Rain , Thunderstorm Heavy Rain
7:49 PM 55.4 °F 55.4 °F 100% 29.75 in 3.0 mi North 8.1 mph - 0.52 in Rain , Thunderstorm Rain
7:52 PM 55.9 °F 55.0 °F 97% 29.75 in 4.0 mi North 6.9 mph - 0.53 in Rain , Thunderstorm Rain
8:22 PM 57.2 °F 55.4 °F 94% 29.73 in 9.0 mi NNE 4.6 mph - 0.06 in Rain , Thunderstorm Light Rain
8:52 PM 57.0 °F 55.0 °F 93% 29.74 in 8.0 mi NNE 4.6 mph - 0.07 in Rain , Thunderstorm Rain
9:37 PM 57.2 °F 55.4 °F 94% 29.75 in 6.0 mi ENE 3.5 mph - 0.12 in Rain Rain
9:52 PM 57.0 °F 55.0 °F 93% 29.73 in 7.0 mi East 11.5 mph - 0.15 in Rain Rain
10:52 PM 57.0 °F 55.9 °F 96% 29.76 in 5.0 mi SE 5.8 mph - 0.17 in Rain Rain
11:52 PM 57.0 °F 55.0 °F 93% 29.63 in 10.0 mi ESE 20.7 mph 26.5 mph 0.05 in   Scattered Clouds